Current weather by "City, St" or "zip code"  
 

Current Conditions: CONROE

Cloudy


79.0 F

Last Updated on May 26 2024, 01:53 AM CDT
Humidity: 88%
Wind Speed: 6.9 mph
Barometer 29.77 in
Dewpoint: 75.0 F
Visibility: 10.00 mi
Precip: --
Heat Index: 82.8 F
Wind Chill: NA
Current conditions at:

CONROE (KCXO)

Lat: 30.35 Lon: 95.41

active severe weather and emergency alerts image image weather storm and storm spotter reports image weather observation monitoring service image
Active
Alerts
Storm Reports Obs
Monitoring

Sign-up For Email & Text Message Weather Alert Notification Services



Advertise Here

Observation History for CONROE


Time Wind
(mph)
Vis
(mi)
Weather Precip (in) Temperature (F) Relative
Humidity
Wind
Chill
(F)
Heat
Index
(F)
Pressure
Air Dwpt altimeter
(in)
sea level
(mb)
Rmks
01:53 AM CDT 6.9 10.00 Cloudy -- 79.0 75.0 88% NA 82.8 29.77 1008.1
12:53 AM CDT S 10.3 10.00 Cloudy -- 79.0 75.0 88% NA 82.8 29.78 1008.5
12:22 AM CDT 10.3 10.00 Mostly Cloudy -- 79.0 75.0 88% NA 82.8 29.78 1008.5
11:53 PM CDT 12.8 10.00 Clear -- 79.0 75.0 88% NA 82.8 29.78 1008.5
11:04 PM CDT 9.2 10.00 Partly Cloudy -- 78.1 75.9 93% NA 79.9 29.81 1009.2
10:53 PM CDT 9.2 10.00 Mostly Cloudy -- 78.1 75.9 93% NA 79.9 29.81 1009.2
09:53 PM CDT SE 8.1 10.00 Clear -- 79.0 75.0 88% NA 82.8 29.81 1009.2
08:53 PM CDT 5.8 10.00 Clear -- 81.0 73.9 79% NA 86.2 29.77 1008.1
07:53 PM CDT SE 10.3 10.00 Clear -- 84.0 75.9 77% NA 92.8 29.77 1008.1
06:53 PM CDT SE 11.4 10.00 Clear -- 87.1 75.9 70% NA 97.5 29.75 1007.5
05:53 PM CDT SE 12.8 10.00 Mostly Clear -- 89.1 77.0 68% NA 101.8 29.75 1007.5
04:53 PM CDT 10.00 Partly Cloudy -- 91.9 77.0 62% NA 105.8 29.74 1007.1
03:53 PM CDT SE 11.4 4.00 Haze -- 91.0 78.1 66% NA 106.2 29.76 1007.8
02:53 PM CDT SE 13.9 3.00 Haze -- 91.9 77.0 62% NA 105.8 29.79 1008.8
01:53 PM CDT SE 11.4 3.00 Haze -- 91.0 77.0 64% NA 104.5 29.81 1009.5
12:53 PM CDT SE 8.1 4.00 Haze -- 91.0 75.9 61% NA 103.1 29.84 1010.5
11:53 AM CDT S 10.3 4.00 Haze -- 89.1 75.9 65% NA 100.4 29.85 1010.8
10:53 AM CDT 11.4 4.00 Haze -- 86.0 75.9 72% NA 95.9 29.86 1011.2
09:53 AM CDT S 9.2 3.00 Haze -- 82.0 75.9 82% NA 89.4 29.87 1011.5
08:53 AM CDT SE 3.4 3.00 Fog/Mist -- 80.1 77.0 90% NA 85.8 29.86 1011.2
08:38 AM CDT E 4.7 2.50 Fog/Mist -- 79.0 77.0 94% NA 83.3 29.86 1011.2
07:53 AM CDT 4.7 2.50 Fog/Mist -- 79.0 77.0 94% NA 83.3 29.84 1010.5
06:53 AM CDT 4.7 2.00 Fog/Mist -- 77.0 75.9 96% NA 79.0 29.83 1010.2
06:07 AM CDT E 4.7 2.00 Fog/Mist -- 77.0 75.9 96% NA 79.0 29.81 1009.5

Regional Weather Observation


CONROE (KCXO)

Cloudy
79.0 F

HOUSTON/DW HOOKS (KDWH)

Cloudy
82.0 F

CLEVELAND MUNI (K6R3)

Fog/Mist
77.9 F

HOUSTON/INTNL (KIAH)

Mostly Cloudy
82.0 F

BRYAN (KCFD)

Cloudy
80.1 F

COLLEGE STATION (KCLL)

Cloudy
81.0 F

Advertise Here


Advertise Here